Moose, Wyoming, United States (83012)
Lat: 43.66N, Lon: 110.72W
Wx Zone: WYZ013
Local Info
Past Weather Observations for Tuesday, February 9, 2016

NOTE: This archive is for the closest National Weather Service station to Moose. Information may differ from the station used for current weather conditions.

Click here for Long-term Archive

Time Weather Temperature Dewpoint Humidity Pressure Winds Precip Visibility
23:55
Clear
7°F / -14°C 5°F / -15°C 92% 30.45 in
(1031 mb)
N 9.2 mph
(N 15 kph)
- 10SM
23:35
Clear
5°F / -15°C 5°F / -15°C 100% 30.45 in
(1031 mb)
N 9.2 mph
(N 15 kph)
- 10SM
23:15
Clear
5°F / -15°C 5°F / -15°C 100% 30.45 in
(1031 mb)
N 9.2 mph
(N 15 kph)
- 10SM
22:55
Clear
9°F / -13°C 9°F / -13°C 100% 30.45 in
(1031 mb)
N 5.8 mph
(N 9 kph)
- 10SM
22:35
Clear
9°F / -13°C 9°F / -13°C 100% 30.45 in
(1031 mb)
NNE 5.8 mph
(NNE 9 kph)
- 10SM
22:15
Clear
10°F / -12°C 10°F / -12°C 100% 30.45 in
(1031 mb)
NE 6.9 mph
(NE 11 kph)
- 10SM
21:55
Clear
9°F / -13°C 7°F / -14°C 92% 30.45 in
(1031 mb)
N 11.5 mph
(N 19 kph)
- 10SM
21:35
Clear
9°F / -13°C 7°F / -14°C 92% 30.45 in
(1031 mb)
N 11.5 mph
(N 19 kph)
- 10SM
21:15
Clear
10°F / -12°C 9°F / -13°C 92% 30.45 in
(1031 mb)
NNE 8.1 mph
(NNE 13 kph)
- 10SM
20:55
Clear
10°F / -12°C 10°F / -12°C 100% 30.45 in
(1031 mb)
N 10.4 mph
(N 17 kph)
- 10SM
19:57
Clear
16°F / -9°C 16°F / -9°C 100% 30.45 in
(1031 mb)
Calm - 10SM
18:56
Clear
16°F / -9°C 14°F / -10°C 93% 30.45 in
(1031 mb)
Calm - 10SM
17:51
Clear
23°F / -5°C 19°F / -7°C 86% 30.45 in
(1031 mb)
Calm - 10SM
16:56
Clear
27°F / -3°C 21°F / -6°C 80% 30.48 in
(1032 mb)
Calm - 10SM
15:51
Clear
25°F / -4°C 21°F / -6°C 86% 30.48 in
(1032 mb)
Calm - 10SM
14:51
Clear
25°F / -4°C 21°F / -6°C 86% 30.51 in
(1033 mb)
Calm - 10SM
13:51
Clear
21°F / -6°C 19°F / -7°C 93% 30.51 in
(1033 mb)
Calm - 10SM
12:51
Clear
21°F / -6°C 19°F / -7°C 93% 30.54 in
(1034 mb)
Calm - 10SM
12:41
Clear
Fog And Mist
19°F / -7°C 19°F / -7°C 100% 30.54 in
(1034 mb)
Calm - 3SM
12:40
Clear
19°F / -7°C 19°F / -7°C 100% 30.54 in
(1034 mb)
Calm - 3SM
11:51
Overcast
18°F / -8°C 23°F / -5°C N/A 30.57 in
(1035 mb)
Calm - 10SM
10:51
Partly Cloudy
12°F / -11°C 10°F / -12°C 92% 30.6 in
(1036 mb)
Calm - 10SM
09:51
Partly Cloudy
9°F / -13°C 7°F / -14°C 92% 30.6 in
(1036 mb)
Calm - 10SM
08:51
Clear
7°F / -14°C 7°F / -14°C 100% 30.6 in
(1036 mb)
Calm - 10SM
07:51
Clear
3°F / -16°C 1°F / -17°C 92% 30.6 in
(1036 mb)
N 11.5 mph
(N 19 kph)
- 10SM
06:51
Clear
3°F / -16°C 3°F / -16°C 100% 30.6 in
(1036 mb)
N 9.2 mph
(N 15 kph)
- 10SM
06:35
Clear
3°F / -16°C 3°F / -16°C 100% 30.6 in
(1036 mb)
N 8.1 mph
(N 13 kph)
- 10SM
06:15
Clear
3°F / -16°C 1°F / -17°C 92% 30.6 in
(1036 mb)
NE 5.8 mph
(NE 9 kph)
- 10SM
05:55
Clear
5°F / -15°C 3°F / -16°C 92% 30.6 in
(1036 mb)
N 11.5 mph
(N 19 kph)
- 10SM
05:35
Clear
5°F / -15°C 3°F / -16°C 92% 30.6 in
(1036 mb)
N 10.4 mph
(N 17 kph)
- 10SM
05:15
Clear
5°F / -15°C 3°F / -16°C 92% 30.6 in
(1036 mb)
NNE 6.9 mph
(NNE 11 kph)
- 10SM
04:55
Clear
3°F / -16°C 1°F / -17°C 92% 30.6 in
(1036 mb)
NNE 6.9 mph
(NNE 11 kph)
- 10SM
04:35
Clear
3°F / -16°C 3°F / -16°C 100% 30.6 in
(1036 mb)
N 10.4 mph
(N 17 kph)
- 10SM
04:15
Clear
5°F / -15°C 5°F / -15°C 100% 30.57 in
(1035 mb)
N 11.5 mph
(N 19 kph)
- 10SM
03:55
Clear
7°F / -14°C 5°F / -15°C 92% 30.57 in
(1035 mb)
N 8.1 mph
(N 13 kph)
- 10SM
03:35
Clear
5°F / -15°C 3°F / -16°C 92% 30.6 in
(1036 mb)
N 10.4 mph
(N 17 kph)
- 10SM
03:15
Clear
7°F / -14°C 7°F / -14°C 100% 30.6 in
(1036 mb)
NNE 8.1 mph
(NNE 13 kph)
- 10SM
02:55
Clear
7°F / -14°C 5°F / -15°C 92% 30.6 in
(1036 mb)
N 10.4 mph
(N 17 kph)
- 10SM
02:35
Clear
5°F / -15°C 3°F / -16°C 92% 30.6 in
(1036 mb)
NNE 8.1 mph
(NNE 13 kph)
- 10SM
02:15
Clear
9°F / -13°C 9°F / -13°C 100% 30.6 in
(1036 mb)
NNE 4.6 mph
(NNE 7 kph)
- 10SM
01:55
Clear
9°F / -13°C 9°F / -13°C 100% 30.57 in
(1035 mb)
N 6.9 mph
(N 11 kph)
- 10SM
01:35
Clear
9°F / -13°C 9°F / -13°C 100% 30.57 in
(1035 mb)
NNE 6.9 mph
(NNE 11 kph)
- 10SM
01:15
Clear
9°F / -13°C 9°F / -13°C 100% 30.57 in
(1035 mb)
NE 5.8 mph
(NE 9 kph)
- 10SM
00:55
Clear
9°F / -13°C 9°F / -13°C 100% 30.6 in
(1036 mb)
NE 5.8 mph
(NE 9 kph)
- 10SM
00:35
Clear
9°F / -13°C 9°F / -13°C 100% 30.6 in
(1036 mb)
NNE 5.8 mph
(NNE 9 kph)
- 10SM
00:15
Clear
9°F / -13°C 9°F / -13°C 100% 30.6 in
(1036 mb)
NE 6.9 mph
(NE 11 kph)
- 10SM
Time Weather Temperature Dewpoint Humidity Pressure Winds Precip Visibility


Weather for websites

WeatherForYou.com, LLC is not responsible for any damages or problems caused by this service. Current weather conditions are obtained from the closest station including government and personal stations which may have varying degrees of accuracy. Weather forecasts are derived from the NOAA NDFD. Like all things, this site belongs to Jesus Christ... He just trusts us to maintain it. If you have any questions or comments email webmaster@weatherforyou.com

Copyright © 2016, WeatherForYou.com LLC. All rights reserved.